Temp
87 100 102 95 81 84 81 83 90 87 89 96 97 93 93 96 91 81 96 98 100 98 92 88 79 80 80 80 80 80 80 80 80 80 79 79 79 79 79 79 80 81 81 81 81 81 81 81 81
97 97 98 93 77 76 81 87 85 89 93 96 96 95 93 90 95 92 94 96 99 96 93 92 79 80 80 79 79 79 79 79 79 79 79 79 79 79 79 79 80 81 81 81 81 81 81 81 80
94 96 90 85 80 77 82 87 88 91 95 94 93 97 95 90 93 97 100 98 99 96 95 90 79 79 80 79 79 79 79 79 79 79 79 79 79 79 79 79 80 81 81 81 81 81 81 80 80
94 94 92 78 77 84 84 88 89 91 94 96 95 92 96 96 96 99 99 100 98 99 97 82 79 79 79 79 79 78 79 79 79 79 79 79 79 78 78 79 80 80 81 81 81 80 80 80 80
95 92 79 76 78 84 87 89 90 89 92 94 95 91 92 94 97 99 98 99 99 99 99 90 78 79 79 79 79 79 79 78 79 79 79 79 79 78 78 79 79 80 80 81 80 80 79 79 79
84 88 75 73 78 84 87 90 90 91 93 94 93 93 93 97 96 99 100 99 102 98 96 91 80 78 78 79 79 78 78 78 78 78 79 78 78 78 79 79 79 80 80 80 80 79 79 78 78
79 80 76 78 78 80 84 91 89 90 91 92 97 91 94 95 98 99 99 100 100 98 97 92 90 84 78 78 78 78 78 78 78 78 78 78 78 78 79 79 79 79 79 79 79 79 79 78 78
83 80 76 77 76 78 86 89 91 90 89 97 96 91 91 96 96 99 100 100 100 99 99 95 93 93 90 89 78 78 78 77 78 78 78 78 78 78 78 78 78 79 79 79 79 79 78 78 78
83 73 72 75 76 80 88 86 91 94 91 93 94 94 94 96 97 97 97 98 99 98 98 98 97 95 94 94 87 79 78 78 78 79 78 78 91 89 87 84 78 78 78 78 78 78 78 78 77
73 72 73 79 83 82 85 84 87 88 89 90 91 93 94 95 96 96 95 95 96 96 98 99 96 95 95 96 92 89 90 90 89 90 87 91 92 92 92 87 78 78 78 78 78 78 78 78 95
76 67 74 75 80 84 84 83 87 85 85 88 87 90 92 94 95 96 99 99 98 98 98 98 92 92 94 96 95 93 94 93 91 90 89 89 93 91 91 93 90 88 81 91 85 87 89 93 94
69 78 76 74 78 81 81 85 82 84 88 93 92 93 92 92 95 97 98 99 99 98 97 96 94 90 90 96 94 95 94 94 93 92 88 89 89 89 90 93 94 90 94 91 91 94 91 90 89
70 72 70 72 74 76 81 80 82 84 89 95 95 92 93 93 94 97 99 100 99 96 96 96 93 89 89 88 94 93 93 93 93 93 90 91 91 89 91 91 92 93 94 93 91 91 90 90 89
73 70 66 63 69 72 73 80 83 85 90 91 92 92 94 94 96 97 96 97 96 96 96 96 94 90 90 88 89 91 91 94 93 93 93 89 91 89 91 90 91 91 93 93 92 91 90 90 91
75 67 62 59 61 66 72 73 77 85 89 89 91 92 93 95 97 96 98 96 97 98 97 94 93 92 88 88 89 89 92 93 93 92 90 89 84 87 87 90 90 91 92 90 89 89 89 89 90
71 70 60 65 64 65 66 60 80 89 87 86 89 91 91 93 95 98 99 98 98 97 96 95 97 94 89 88 89 91 92 92 92 92 91 88 85 86 86 86 83 91 90 90 89 90 89 90 90
68 59 61 63 67 68 68 63 79 87 84 83 87 90 91 93 95 95 98 98 97 95 94 93 93 93 91 88 90 89 89 90 92 92 92 89 86 87 86 90 90 87 89 89 89 89 88 88 88
61 60 61 61 67 67 66 66 80 85 85 84 87 89 88 89 92 96 96 96 96 94 92 91 92 89 89 90 87 90 91 90 92 92 91 89 88 89 87 89 88 88 89 89 89 85 88 87 88
69 64 59 64 71 68 67 67 76 83 83 84 86 85 85 85 89 90 91 91 91 91 89 87 88 89 88 88 88 87 87 89 90 91 89 89 88 88 87 89 89 87 87 86 86 85 83 85 88
67 61 62 69 71 72 69 68 76 81 80 83 83 83 82 84 86 86 86 87 87 87 87 85 86 87 86 89 88 90 90 91 91 91 89 88 87 87 86 85 87 86 87 84 83 81 83 86 87
66 64 64 64 69 72 68 64 71 76 81 81 82 81 81 81 82 83 84 84 85 85 85 86 85 86 86 86 88 86 88 89 88 89 87 85 86 86 85 85 85 85 85 87 84 78 75 80 85
62 69 68 66 61 58 70 59 69 73 75 78 78 78 80 80 82 83 82 81 82 82 84 83 84 85 86 84 86 82 85 85 89 89 89 86 85 86 85 85 85 83 87 84 83 84 81 78 80
66 70 67 67 65 64 62 59 68 73 70 74 74 76 78 80 80 81 81 81 83 84 83 82 82 82 83 82 83 84 82 88 86 86 80 83 82 85 86 85 84 83 85 83 81 81 79 83 82
72 68 66 66 66 55 64 62 66 68 70 72 73 75 76 78 80 80 82 82 81 84 83 81 80 79 80 81 81 81 80 81 83 81 82 84 85 84 84 85 83 82 83 81 82 80 79 78 79
69 64 55 52 54 54 64 61 66 68 70 72 71 72 75 78 80 80 80 80 80 80 81 81 79 78 80 81 81 82 80 80 80 80 84 83 85 85 82 82 81 83 80 82 81 79 78 78 78
66 65 59 46 51 58 62 56 64 69 71 73 74 75 76 77 79 80 80 80 81 80 81 82 80 79 80 80 80 80 79 85 86 82 85 85 86 86 84 81 81 80 81 80 79 81 80 79 79
66 60 67 58 59 55 62 60 65 67 67 70 71 72 72 74 76 78 80 81 81 80 78 78 79 78 78 78 78 78 78 78 80 78 78 83 81 84 82 81 80 80 80 80 78 80 78 77 76
68 72 57 60 45 45 57 57 63 62 64 68 69 70 71 75 77 79 80 78 78 78 77 77 78 76 76 77 76 76 76 76 76 75 73 73 77 78 78 78 78 78 78 78 77 78 79 76 78
63 63 63 62 60 49 49 60 67 67 69 67 69 71 72 73 76 77 78 79 78 78 78 75 76 76 75 75 75 74 75 75 75 74 75 75 75 75 76 77 77 76 76 76 75 75 76 76 75
64 64 63 51 49 56 55 54 68 70 71 70 70 71 73 74 74 76 75 75 75 74 75 75 74 75 75 75 75 73 73 74 73 73 73 74 73 74 75 76 75 76 76 75 74 74 75 75 74
MSLP
1011.52 1010.32 1010.01 1009.25 1007.75 1005.12 1002.65 1002.29 1002.72 1002.09 1001.98 1002.41 1002.62 1002.58 1002.05 1002.08 1002.42 1003.79 1005.85 1006.41 1006.85 1007.81 1009.20 1010.28 1011.19 1011.49 1011.78 1012.07 1012.26 1012.47 1012.77 1013.13 1013.54 1013.85 1014.12 1014.41 1014.57 1014.57 1014.82 1015.06 1015.32 1015.52 1015.71 1015.84 1015.95 1016.06 1016.20 1016.32 1016.43
1010.76 1009.97 1009.24 1007.66 1006.11 1003.28 1001.95 1002.20 1002.21 1002.44 1002.60 1002.66 1002.45 1002.54 1002.37 1002.65 1003.82 1005.03 1005.88 1006.90 1007.33 1008.32 1009.31 1009.97 1011.25 1011.69 1011.93 1012.22 1012.52 1012.75 1012.93 1013.35 1013.73 1014.02 1014.33 1014.59 1014.66 1014.87 1015.05 1015.20 1015.42 1015.64 1015.85 1016.07 1016.26 1016.40 1016.52 1016.58 1016.62
1010.84 1009.80 1008.03 1006.54 1004.91 1002.64 1001.28 1002.34 1002.33 1002.54 1002.56 1002.47 1002.30 1002.54 1002.69 1003.55 1004.68 1004.96 1005.75 1006.98 1007.47 1008.42 1009.17 1010.17 1011.31 1011.77 1012.17 1012.46 1012.74 1013.04 1013.21 1013.55 1013.90 1014.19 1014.50 1014.70 1014.89 1015.20 1015.41 1015.60 1015.78 1016.00 1016.19 1016.34 1016.52 1016.75 1016.90 1016.92 1016.90
1009.75 1008.84 1008.09 1006.48 1004.15 1003.29 1002.54 1002.71 1003.06 1002.44 1002.47 1002.57 1002.50 1002.24 1003.52 1004.70 1004.73 1005.19 1006.43 1007.00 1007.70 1008.20 1008.97 1010.81 1011.46 1011.83 1012.32 1012.71 1013.00 1013.32 1013.51 1013.77 1014.03 1014.37 1014.63 1014.86 1015.15 1015.42 1015.64 1015.85 1016.08 1016.27 1016.42 1016.58 1016.75 1016.88 1016.94 1016.98 1017.03
1009.47 1007.90 1006.31 1005.59 1004.45 1003.69 1003.96 1003.68 1003.51 1002.64 1002.42 1002.37 1002.47 1002.23 1003.37 1004.99 1005.40 1005.85 1006.62 1007.07 1007.49 1008.05 1008.87 1010.56 1011.51 1011.94 1012.39 1012.78 1013.07 1013.44 1013.73 1014.02 1014.23 1014.46 1014.76 1015.06 1015.36 1015.66 1015.88 1016.10 1016.33 1016.52 1016.65 1016.74 1016.83 1016.86 1016.89 1016.95 1017.00
1008.58 1007.28 1005.74 1004.81 1004.34 1004.26 1004.35 1004.05 1003.66 1002.97 1002.52 1002.37 1002.60 1002.58 1003.45 1005.03 1005.49 1006.01 1006.65 1007.05 1007.46 1008.24 1009.12 1010.40 1011.66 1012.11 1012.56 1012.83 1013.16 1013.44 1013.75 1014.00 1014.27 1014.58 1014.93 1015.24 1015.51 1015.76 1015.99 1016.22 1016.42 1016.53 1016.62 1016.74 1016.83 1016.88 1016.92 1017.04 1017.06
1008.46 1007.10 1005.33 1004.78 1004.35 1004.37 1004.34 1004.36 1003.76 1003.13 1002.67 1002.30 1002.51 1002.34 1003.59 1004.82 1005.55 1006.18 1006.76 1007.22 1007.66 1008.46 1009.25 1010.30 1011.17 1012.06 1012.75 1013.06 1013.36 1013.64 1013.90 1014.11 1014.35 1014.61 1014.90 1015.18 1015.50 1015.75 1015.95 1016.17 1016.33 1016.49 1016.66 1016.73 1016.77 1016.87 1016.96 1016.99 1017.04
1009.17 1007.90 1005.79 1005.53 1005.15 1004.45 1004.82 1004.57 1004.35 1003.79 1003.03 1003.36 1003.17 1002.33 1003.16 1004.60 1005.94 1006.41 1006.81 1007.22 1007.71 1008.43 1009.05 1009.95 1010.78 1011.53 1012.21 1012.82 1013.59 1013.86 1014.06 1014.24 1014.47 1014.71 1014.98 1015.28 1015.55 1015.76 1015.87 1016.04 1016.14 1016.34 1016.52 1016.67 1016.72 1016.85 1016.91 1016.75 1016.72
1009.94 1008.35 1006.27 1005.70 1005.57 1004.91 1005.29 1004.73 1004.73 1004.52 1003.92 1003.59 1003.64 1003.67 1004.37 1005.34 1006.01 1006.24 1006.53 1007.04 1007.43 1008.13 1008.87 1009.50 1010.17 1010.86 1011.42 1011.87 1013.02 1013.88 1014.16 1014.33 1014.60 1014.86 1015.13 1015.31 1014.85 1015.19 1015.37 1015.41 1015.79 1016.02 1016.20 1016.38 1016.52 1016.55 1016.53 1016.57 1016.38
1009.87 1008.55 1007.41 1007.11 1006.51 1005.97 1005.72 1005.93 1005.41 1004.79 1003.87 1003.58 1003.89 1004.58 1005.01 1005.46 1005.61 1005.85 1006.17 1006.47 1007.02 1007.78 1008.41 1009.16 1009.91 1010.57 1010.99 1011.26 1012.08 1012.95 1013.22 1013.66 1013.91 1014.09 1014.43 1014.43 1014.23 1014.39 1014.50 1014.87 1015.72 1016.06 1016.22 1016.28 1016.30 1016.30 1016.38 1016.31 1014.99
1009.07 1009.13 1009.04 1009.13 1008.90 1007.69 1006.70 1006.35 1006.08 1005.36 1004.11 1004.37 1004.39 1004.51 1005.01 1005.19 1005.38 1005.48 1005.63 1005.91 1006.62 1007.52 1008.16 1008.91 1010.03 1010.54 1010.88 1011.03 1011.52 1012.06 1012.29 1012.73 1013.15 1013.39 1013.67 1013.86 1013.73 1014.09 1014.42 1014.23 1014.77 1015.15 1015.67 1015.16 1015.56 1015.63 1015.38 1014.72 1014.53
1009.51 1009.15 1009.70 1009.96 1009.97 1008.78 1007.64 1006.98 1006.54 1005.92 1004.82 1004.67 1004.76 1004.91 1004.93 1005.05 1005.02 1005.03 1005.24 1005.70 1006.38 1007.26 1007.91 1008.70 1009.62 1010.47 1010.91 1010.70 1011.16 1011.25 1011.55 1011.99 1012.36 1012.77 1013.39 1013.41 1013.64 1013.59 1013.60 1013.41 1013.51 1014.17 1014.06 1014.19 1014.51 1014.17 1014.48 1014.62 1014.85
1009.50 1009.73 1010.90 1011.14 1010.96 1010.57 1009.50 1007.95 1007.04 1006.13 1005.61 1005.12 1004.75 1004.94 1004.90 1004.80 1004.89 1005.11 1005.19 1005.62 1006.26 1007.01 1007.66 1008.40 1009.28 1010.05 1010.54 1010.85 1010.53 1010.96 1011.34 1011.58 1011.77 1012.18 1012.75 1012.81 1012.87 1013.12 1013.21 1013.29 1013.37 1013.24 1013.44 1013.76 1013.84 1013.99 1014.19 1014.14 1014.35
1009.29 1010.59 1010.91 1011.30 1011.83 1011.23 1010.11 1007.89 1007.09 1006.11 1005.73 1005.14 1004.78 1004.57 1004.59 1004.73 1004.71 1005.02 1005.47 1005.70 1006.22 1006.74 1007.24 1007.99 1008.75 1009.56 1010.11 1010.41 1010.65 1010.83 1011.02 1010.97 1011.58 1011.70 1011.97 1012.72 1012.55 1012.61 1012.80 1013.07 1013.06 1013.09 1013.09 1013.26 1013.38 1013.47 1013.80 1013.68 1013.49
1009.25 1010.24 1011.59 1011.99 1012.13 1012.06 1011.58 1008.21 1006.46 1005.82 1005.57 1004.84 1004.41 1004.42 1004.55 1004.61 1004.81 1005.05 1005.13 1005.63 1005.99 1006.41 1006.93 1007.57 1008.38 1009.11 1009.64 1009.96 1010.37 1010.48 1010.50 1010.76 1010.90 1011.41 1011.83 1012.22 1012.81 1012.60 1012.73 1012.61 1012.77 1012.79 1012.72 1013.01 1013.32 1013.42 1013.55 1013.61 1013.31
1008.56 1009.53 1010.05 1011.11 1012.09 1011.97 1012.07 1008.33 1005.90 1004.86 1004.88 1004.57 1004.24 1004.21 1004.45 1004.49 1004.67 1004.82 1005.03 1005.43 1005.84 1006.27 1006.59 1007.27 1007.60 1008.17 1009.01 1009.37 1009.71 1009.91 1010.04 1010.30 1010.53 1010.96 1011.36 1011.92 1012.30 1012.47 1012.43 1012.38 1012.71 1012.55 1012.82 1012.73 1012.90 1012.90 1012.80 1012.68 1012.60
1007.67 1007.85 1008.80 1009.04 1010.39 1011.05 1010.42 1007.59 1006.33 1005.15 1004.81 1004.25 1004.11 1004.08 1004.09 1004.21 1004.46 1004.87 1004.98 1005.27 1005.77 1006.24 1006.57 1007.02 1007.45 1007.73 1008.26 1009.08 1009.42 1009.66 1009.87 1010.19 1010.13 1010.52 1010.81 1011.34 1011.80 1012.16 1012.21 1011.86 1011.80 1012.52 1012.53 1012.41 1012.46 1012.43 1012.51 1012.35 1012.28
1005.86 1007.20 1008.07 1008.13 1008.97 1009.35 1008.78 1007.61 1005.67 1004.70 1004.13 1003.71 1003.73 1003.90 1004.31 1004.37 1004.47 1004.50 1004.87 1005.40 1005.72 1006.09 1006.51 1006.84 1007.06 1007.63 1008.06 1008.60 1009.20 1009.21 1009.30 1009.56 1009.63 1010.00 1010.37 1010.87 1011.29 1011.44 1011.70 1011.54 1011.76 1012.11 1011.98 1012.02 1012.14 1012.31 1012.17 1012.17 1011.94
1005.71 1006.54 1007.46 1007.69 1007.82 1008.04 1007.57 1006.93 1005.26 1004.49 1004.11 1003.59 1003.65 1004.17 1004.36 1004.67 1005.04 1005.28 1005.59 1005.79 1005.89 1006.16 1006.45 1006.59 1006.84 1007.22 1007.84 1008.16 1008.26 1008.40 1008.37 1008.84 1009.08 1009.49 1009.94 1010.48 1010.89 1011.02 1011.22 1011.34 1011.43 1011.88 1011.83 1011.88 1012.01 1012.13 1012.02 1011.77 1011.68
1005.90 1006.55 1006.57 1006.79 1006.96 1006.75 1005.84 1005.82 1005.14 1003.99 1004.04 1003.65 1004.09 1004.66 1005.07 1005.25 1005.33 1005.65 1005.71 1005.66 1005.76 1006.04 1006.21 1006.54 1006.67 1007.02 1007.56 1007.74 1007.93 1007.77 1007.86 1008.07 1008.47 1008.96 1009.58 1010.13 1010.44 1010.74 1010.98 1011.28 1011.18 1011.50 1011.53 1012.01 1012.17 1012.33 1011.91 1011.36 1011.39
1005.58 1005.59 1005.40 1005.20 1006.34 1006.16 1005.81 1005.55 1004.44 1004.36 1004.19 1004.34 1004.87 1005.49 1005.60 1005.81 1005.89 1005.94 1005.95 1006.06 1006.24 1006.41 1006.42 1006.27 1006.47 1006.79 1007.24 1007.60 1007.83 1008.14 1008.12 1007.98 1008.38 1008.56 1009.12 1009.82 1010.05 1010.34 1010.80 1011.06 1011.28 1011.46 1011.77 1011.37 1011.80 1012.34 1012.49 1011.73 1011.13
1004.63 1005.37 1005.23 1005.47 1006.08 1005.13 1005.13 1003.49 1003.23 1003.40 1003.92 1004.36 1005.24 1005.48 1005.80 1006.12 1006.14 1006.23 1006.33 1006.61 1006.69 1006.70 1006.60 1006.47 1006.40 1006.56 1006.91 1007.46 1007.41 1007.88 1007.57 1007.58 1007.55 1007.70 1008.44 1009.43 1009.81 1010.09 1010.46 1010.74 1011.06 1011.32 1011.18 1011.40 1011.82 1011.91 1011.97 1012.12 1011.08
1004.28 1005.11 1005.28 1005.35 1004.95 1004.64 1004.67 1004.35 1002.77 1003.81 1003.98 1004.45 1005.84 1006.04 1006.21 1006.43 1006.60 1006.60 1006.68 1006.71 1006.69 1006.58 1006.59 1006.64 1006.73 1007.02 1007.23 1007.64 1007.65 1007.67 1007.83 1007.46 1008.11 1008.31 1009.37 1009.26 1009.79 1010.03 1010.20 1010.64 1010.93 1011.15 1011.28 1011.28 1011.65 1011.72 1011.80 1011.53 1011.17
1004.66 1004.91 1004.95 1005.12 1004.35 1004.08 1003.72 1004.04 1002.59 1003.39 1003.94 1005.23 1006.00 1006.48 1006.90 1006.90 1006.98 1006.95 1007.02 1007.21 1007.17 1006.95 1006.95 1007.09 1007.28 1007.46 1007.69 1007.90 1008.00 1008.00 1008.10 1008.22 1008.17 1008.76 1008.86 1008.98 1009.43 1009.82 1010.11 1010.41 1010.79 1010.99 1011.06 1011.18 1011.23 1011.43 1011.58 1011.56 1011.30
1004.65 1004.19 1003.63 1004.06 1003.51 1002.98 1003.36 1003.91 1003.18 1004.43 1005.42 1005.92 1006.55 1007.11 1007.16 1007.10 1007.17 1007.24 1007.37 1007.47 1007.70 1007.72 1007.63 1007.75 1007.97 1008.13 1008.24 1008.22 1008.23 1008.32 1008.60 1008.72 1008.65 1008.41 1008.52 1008.70 1009.06 1009.35 1009.79 1010.30 1010.65 1010.68 1010.96 1011.07 1011.10 1011.12 1011.17 1011.18 1011.02
1003.89 1003.80 1002.35 1002.62 1002.33 1002.36 1003.94 1003.43 1003.42 1005.45 1006.41 1006.89 1007.11 1007.20 1007.32 1007.32 1007.36 1007.48 1007.78 1007.92 1008.17 1008.34 1008.23 1008.40 1008.72 1008.78 1008.92 1008.93 1009.11 1009.29 1009.32 1008.69 1008.50 1008.88 1008.64 1008.87 1008.97 1009.19 1009.63 1010.17 1010.39 1010.61 1010.60 1010.77 1010.79 1010.69 1010.67 1010.50 1010.52
1003.60 1003.97 1004.00 1003.60 1004.02 1003.46 1002.83 1004.20 1005.40 1006.20 1006.66 1007.03 1007.27 1007.45 1007.74 1007.94 1008.00 1007.88 1007.98 1008.18 1008.50 1008.81 1009.35 1009.43 1009.23 1009.37 1009.56 1009.56 1009.65 1009.74 1009.73 1009.63 1009.38 1009.66 1009.73 1009.33 1009.48 1009.35 1009.67 1009.87 1010.00 1010.14 1010.26 1010.23 1010.21 1010.25 1010.09 1010.28 1010.25
1004.14 1003.91 1004.56 1004.48 1003.77 1003.33 1002.88 1003.54 1003.75 1005.45 1006.29 1007.05 1007.42 1007.82 1008.21 1008.30 1008.25 1008.38 1008.46 1008.82 1009.18 1009.48 1009.87 1009.98 1009.83 1009.93 1010.12 1010.08 1010.14 1010.21 1010.27 1010.24 1010.25 1010.18 1010.24 1010.11 1009.86 1009.82 1009.72 1009.62 1009.64 1009.73 1009.85 1009.83 1009.69 1009.52 1009.40 1009.67 1009.63
1004.65 1004.14 1004.27 1004.06 1003.97 1003.70 1003.68 1003.39 1004.34 1004.74 1005.88 1006.85 1007.46 1008.19 1008.42 1008.42 1008.28 1008.40 1008.64 1009.17 1009.45 1009.74 1010.01 1010.29 1010.27 1010.21 1010.35 1010.33 1010.35 1010.49 1010.43 1010.39 1010.40 1010.31 1010.13 1009.98 1009.92 1009.79 1009.64 1009.45 1009.23 1009.19 1009.19 1009.17 1009.12 1008.98 1008.82 1008.57 1008.62
1005.09 1004.28 1004.30 1004.83 1005.41 1005.17 1004.72 1004.61 1005.33 1005.44 1005.96 1006.97 1007.49 1008.09 1008.53 1008.73 1008.86 1008.98 1009.25 1009.67 1009.94 1010.25 1010.35 1010.41 1010.60 1010.43 1010.39 1010.45 1010.42 1010.46 1010.47 1010.32 1010.27 1010.09 1010.00 1009.94 1009.74 1009.53 1009.27 1009.03 1008.74 1008.51 1008.38 1008.32 1008.29 1008.07 1007.97 1007.74 1007.64
Wind_Speed
16 7 4 5 8 8 11 5 1 3 1 4 8 6 8 7 11 6 6 7 16 17 17 18 12 13 13 12 12 14 15 15 15 15 15 15 14 14 13 12 10 10 9 9 9 9 10 10 10
11 5 6 5 10 10 10 5 11 2 4 7 4 6 6 8 6 8 12 10 17 16 15 17 14 12 13 13 12 14 16 15 15 15 15 14 13 13 12 12 11 10 8 8 8 8 9 9 9
11 7 7 6 12 13 8 10 5 0 2 2 3 2 3 6 4 11 12 16 18 16 16 15 15 13 13 14 13 13 15 15 15 15 14 13 12 11 10 9 8 8 7 7 7 7 6 6 6
6 6 5 10 14 14 8 8 2 2 4 0 1 4 7 5 6 6 15 18 17 16 16 18 14 14 13 14 13 13 14 14 15 14 13 12 11 10 9 8 7 6 6 6 6 5 5 5 4
7 4 10 14 18 4 8 4 4 4 3 2 5 7 5 7 8 13 16 16 17 16 15 17 14 14 14 14 14 14 13 13 13 13 12 11 10 9 9 8 6 5 4 5 5 5 5 4 3
7 7 10 15 16 11 6 6 7 7 4 3 7 5 9 9 9 13 14 15 16 15 14 16 14 13 13 13 13 13 13 12 12 12 11 10 10 9 9 7 6 5 5 5 5 5 4 3 3
11 11 15 14 10 11 8 3 9 5 4 4 7 9 8 10 10 12 12 13 15 15 14 14 15 14 12 12 12 12 12 12 12 12 12 11 10 10 9 8 7 6 5 5 5 5 4 4 4
6 9 16 9 12 12 5 6 2 6 2 3 3 7 13 13 12 12 12 14 15 14 14 14 14 15 14 13 11 11 12 12 12 12 11 10 9 9 9 8 9 8 7 6 6 4 4 5 6
1 7 11 13 11 6 5 5 0 5 8 2 2 5 6 13 14 13 12 14 13 12 13 13 14 14 14 14 14 11 12 11 10 10 9 10 9 11 12 8 12 10 9 8 7 7 7 7 9
6 9 9 3 8 6 3 6 8 7 4 4 6 5 8 13 14 13 13 13 14 14 14 12 12 12 12 10 13 13 12 11 11 12 12 10 9 7 6 6 8 8 8 8 9 8 8 9 8
19 15 7 9 14 18 15 6 5 10 9 5 5 4 6 11 13 12 12 12 13 13 11 13 12 11 12 10 9 8 8 8 9 12 11 11 7 8 8 6 7 8 12 8 11 10 9 9 5
14 21 9 10 16 18 13 6 12 11 16 4 5 5 4 10 11 12 11 11 12 12 13 14 14 12 13 9 9 9 9 9 8 11 12 8 7 8 7 6 7 6 6 6 6 5 6 6 8
19 15 6 8 14 19 22 21 19 17 15 12 10 5 7 8 10 10 9 8 9 12 13 14 14 14 13 14 10 10 9 9 10 10 12 10 9 8 8 7 7 6 6 6 7 6 6 7 8
17 13 8 7 16 20 27 19 18 17 11 14 11 9 8 8 9 9 9 10 11 11 13 13 15 16 15 14 13 10 9 10 10 9 10 13 9 8 8 8 9 8 8 7 7 7 6 7 8
11 15 9 13 16 13 26 27 24 20 17 16 13 10 7 9 8 9 10 10 10 10 11 14 15 15 16 16 13 12 10 11 10 9 11 11 9 10 10 8 8 8 8 8 7 8 8 9 9
19 15 17 19 16 19 17 25 22 18 14 15 14 10 8 8 10 10 10 10 9 11 11 12 12 15 16 15 13 11 11 10 9 8 9 12 10 11 9 7 5 7 6 7 6 7 8 8 8
17 14 20 13 23 21 23 25 23 11 12 13 9 10 9 8 10 11 14 13 12 12 12 12 13 14 15 14 12 12 12 10 9 8 9 10 11 11 9 7 7 6 8 7 7 7 8 8 8
16 19 17 18 21 24 20 23 19 10 11 11 12 9 6 6 10 12 10 12 12 12 11 13 12 13 12 10 11 10 11 11 10 9 9 11 10 11 9 7 7 7 7 7 7 7 7 8 8
14 18 12 14 11 21 20 20 17 11 10 9 9 4 3 5 5 4 6 7 8 9 11 13 13 11 10 10 10 10 11 10 10 10 11 10 10 10 9 8 7 8 8 8 7 8 10 9 9
11 14 16 13 12 14 18 15 16 9 11 5 2 2 2 4 5 5 5 4 5 7 7 10 11 10 10 8 8 8 8 10 9 9 8 9 10 9 8 8 7 7 7 7 8 8 8 8 7
14 14 12 8 8 11 7 15 14 12 7 7 6 3 4 6 7 7 7 6 6 5 4 6 8 9 10 11 7 6 6 6 8 8 8 8 9 9 9 8 7 4 6 6 5 5 7 8 8
16 11 9 10 8 11 14 10 13 15 12 8 4 5 5 7 8 9 9 8 6 5 4 4 4 6 8 10 9 10 8 8 8 7 7 7 8 8 8 8 7 7 5 4 6 7 8 7 9
8 7 12 12 11 10 11 9 10 9 11 12 4 6 8 8 9 11 12 11 10 9 7 5 2 2 5 6 10 9 11 6 5 5 9 8 8 8 7 7 6 5 6 6 6 6 7 7 9
4 9 6 7 9 12 16 12 12 14 12 9 6 8 7 7 9 11 12 12 12 11 11 9 7 5 3 5 7 8 7 7 7 8 8 7 7 7 8 8 8 7 7 7 7 7 8 8 9
14 12 8 9 10 9 7 8 6 10 6 4 8 8 8 8 9 10 11 12 13 14 13 12 12 11 9 8 6 6 6 6 8 9 5 5 6 6 8 9 8 8 8 7 7 7 8 8 9
16 15 7 9 8 8 8 8 7 7 7 8 8 7 6 6 8 9 10 9 11 12 13 12 11 10 9 8 7 6 3 2 1 3 2 4 5 5 6 9 10 11 10 10 9 8 8 8 8
12 12 5 7 1 8 5 8 7 8 8 8 7 6 5 4 5 4 5 6 7 8 8 8 8 9 9 8 6 6 6 6 6 4 4 6 7 8 8 10 12 12 13 13 11 10 9 10 9
10 10 9 9 8 12 8 6 5 16 14 11 9 5 3 2 1 2 4 5 5 5 6 7 8 8 7 7 7 6 6 6 6 5 7 8 9 10 10 11 12 12 13 14 13 12 12 12 11
9 10 8 7 5 6 8 1 8 9 13 12 7 2 2 5 6 5 5 3 5 5 7 7 7 7 6 6 6 6 6 6 5 6 7 7 8 10 12 13 14 15 15 16 14 15 16 16 14
6 9 8 7 9 7 9 9 5 3 9 6 5 0 6 6 6 7 5 6 5 6 6 6 6 7 7 7 7 8 8 8 8 8 9 9 10 11 12 13 14 16 17 17 19 19 18 19 19
Wind_Direction
272 271 254 237 243 238 236 185 135 221 195 0 314 264 353 4 357 37 120 132 134 144 146 153 147 144 137 134 134 137 136 135 139 141 140 142 143 135 138 141 145 143 142 139 134 131 130 132 134
297 258 220 261 254 217 206 133 193 179 345 330 263 195 234 77 53 99 139 147 151 140 151 151 148 147 140 136 135 135 133 136 138 139 141 144 140 142 147 147 148 152 148 138 133 137 139 136 136
260 253 248 233 240 249 240 174 134 46 356 3 231 288 26 60 71 132 104 149 146 150 153 140 151 147 144 139 137 137 135 137 140 141 144 144 143 149 148 144 146 151 142 138 141 140 137 137 144
242 195 214 241 238 235 315 134 167 228 154 311 221 177 115 64 123 113 136 150 150 154 152 134 150 148 147 145 144 142 140 142 143 145 146 146 150 148 144 143 144 149 147 141 138 138 143 151 159
240 243 224 225 237 232 241 266 287 249 226 232 203 132 96 98 102 132 145 156 160 153 153 153 152 152 154 153 150 149 147 146 145 148 150 152 151 148 146 147 144 148 147 146 147 156 166 170 176
228 262 213 224 220 229 240 251 269 249 240 183 207 187 116 116 136 144 150 160 160 152 151 148 152 153 159 158 158 154 152 149 151 152 153 154 152 152 154 151 149 156 161 160 167 174 180 197 211
263 225 224 231 246 221 232 241 232 284 239 150 331 202 100 156 127 146 153 160 156 153 161 156 165 163 162 163 164 162 160 161 161 160 160 158 156 156 160 160 165 175 174 178 182 192 202 215 239
287 275 222 212 219 225 144 232 269 279 81 312 252 215 165 127 145 149 158 161 161 162 164 164 170 172 176 173 173 172 171 168 169 167 165 159 158 169 174 168 183 189 190 198 203 207 220 231 242
275 248 221 204 215 212 158 244 8 312 268 281 36 357 57 136 149 156 156 162 165 168 167 174 174 174 184 176 171 176 179 178 171 174 174 167 200 185 177 193 153 190 199 201 209 216 221 236 234
181 247 230 312 317 272 127 282 325 294 255 156 167 95 118 156 161 162 167 168 173 175 174 176 184 180 188 183 170 194 187 194 193 192 184 211 210 204 233 164 182 207 211 212 216 218 231 234 254
205 234 263 290 294 287 274 272 300 294 249 69 48 84 164 173 176 177 179 171 178 177 180 183 185 187 201 196 186 194 194 197 196 201 197 206 196 199 204 208 197 213 198 223 195 202 222 236 265
219 232 246 282 297 310 269 291 277 281 287 308 320 347 190 195 188 191 187 173 178 186 190 186 183 191 204 205 196 201 203 200 203 201 198 206 210 205 227 214 210 206 214 219 231 237 244 248 250
226 200 233 311 286 289 286 280 279 278 278 281 284 277 227 207 204 208 207 203 192 197 196 196 195 196 200 212 205 216 210 203 210 203 199 212 215 215 216 226 236 230 219 222 232 236 242 238 245
198 201 214 316 287 289 287 279 274 262 253 259 245 257 228 215 213 191 203 214 212 213 209 204 202 202 205 211 218 207 212 212 218 213 212 213 222 219 226 219 223 228 223 231 242 245 255 247 255
152 198 200 225 271 269 294 275 266 258 261 261 236 233 243 229 212 223 215 211 222 218 217 206 209 206 212 210 211 216 214 219 208 212 219 209 213 224 232 228 232 236 231 235 241 242 240 253 252
213 232 206 210 208 261 263 273 271 240 246 237 231 220 214 226 238 242 244 246 235 240 213 220 212 208 212 216 213 218 218 216 220 211 212 212 219 228 212 224 242 243 245 239 242 239 247 249 253
199 214 226 196 191 216 223 251 265 234 231 242 231 224 225 240 224 236 240 238 235 230 231 221 218 222 215 216 223 218 216 219 219 210 215 209 218 220 228 224 224 218 241 234 236 242 249 262 257
188 216 194 213 183 202 219 246 252 217 235 225 227 240 251 273 271 271 239 247 246 240 229 227 216 216 216 217 216 219 219 212 217 214 215 210 222 224 221 234 238 229 233 237 237 250 257 257 279
197 207 190 209 173 194 220 215 236 215 220 212 210 215 302 339 338 295 247 251 260 250 241 228 221 216 206 207 207 212 213 211 209 213 214 214 222 224 223 236 222 229 243 250 242 238 234 252 245
205 211 197 191 182 222 200 225 238 206 217 231 179 163 35 343 5 12 355 358 334 298 277 236 227 214 209 214 222 227 222 211 207 200 199 211 213 219 226 239 244 243 259 238 250 253 268 246 262
204 215 181 202 188 223 251 238 219 227 211 163 125 79 48 11 1 10 13 12 343 302 288 228 218 221 214 231 211 216 236 208 197 199 193 198 208 212 216 222 236 236 253 261 246 236 241 275 270
209 208 249 222 206 233 197 249 198 211 204 184 135 62 42 30 22 31 28 25 11 353 317 274 235 217 213 209 222 217 221 213 207 197 173 178 187 179 180 200 204 212 247 259 247 236 252 239 268
234 188 213 226 222 246 186 249 166 185 203 159 107 69 51 44 42 37 37 33 32 28 32 28 18 200 224 208 236 210 234 201 196 156 161 180 166 174 185 196 201 203 226 202 259 260 244 274 271
159 183 169 212 221 223 224 215 203 179 219 126 97 75 73 71 63 52 50 48 41 42 54 56 65 75 143 199 205 220 218 208 180 169 172 171 173 179 197 198 205 213 230 226 230 236 248 263 285
201 193 188 206 205 238 114 210 284 102 120 130 121 107 91 81 74 65 58 57 52 53 56 65 66 69 75 88 94 115 140 164 162 158 182 176 195 202 191 214 216 219 222 237 237 228 254 254 262
199 203 241 228 213 194 142 237 117 112 129 129 118 111 101 74 67 62 63 66 70 67 61 69 75 75 73 70 73 78 66 86 56 209 328 229 241 231 232 215 227 229 228 226 229 236 238 250 247
162 225 337 289 286 283 223 113 133 159 158 157 132 106 78 65 63 47 65 63 70 64 51 45 50 57 42 45 35 33 12 351 346 313 265 250 257 266 244 238 236 236 237 234 231 240 248 243 243
273 164 193 216 259 250 232 244 281 176 174 164 157 124 83 38 35 50 39 47 35 64 67 47 45 52 47 37 26 24 15 6 339 313 295 294 285 273 268 254 247 249 251 251 245 248 239 241 249
172 206 233 305 296 255 266 178 34 175 178 182 156 121 4 337 335 350 5 60 85 62 47 35 26 31 27 16 8 354 344 333 318 309 301 295 285 273 268 263 257 252 250 249 248 251 259 260 235
317 296 213 221 236 252 286 287 65 93 156 183 192 297 3 339 359 5 33 47 42 36 23 38 6 353 356 346 334 328 321 318 304 297 294 289 279 275 269 267 263 261 257 254 252 251 252 250 246